Regional Weather Roundup
Issued by NWS

Home | Current Version | Previous Version | Graphics & Text | Print | Product List | Glossary On
Versions: 1 2 3 4 5 6 7 8 9 10 11 12 13 14 15 16 17 18 19 20 21 22 23 24 25 26 27 28 29 30 31 32 33 34 35 36 37 38 39 40 41 42 43 44 45 46 47 48 49 50
249
ASUS44 KLIX 200001
RWRLA
LOUISIANA WEATHER ROUNDUP
NATIONAL WEATHER SERVICE NEW ORLEANS LA
700 PM CDT FRI SEP 19 2014

NOTE: "FAIR" INDICATES FEW OR NO CLOUDS BELOW 12,000 FEET WITH NO
      SIGNIFICANT WEATHER AND/OR OBSTRUCTIONS TO VISIBILITY.
      SKY/WX - SKY CONDITION AND SIGNIFICANT WEATHER.
      TMP - AIR TEMPERATURE.    DP   - DEWPOINT TEMPERATURE.
      RH  - RELATIVE HUMIDITY.  PRES - PRESSURE.
      HX  - HEAT INDEX.         WCI  - WIND CHILL INDEX.

*  THESE STATIONS ARE NOT NWS OR FAA STATIONS AND ARE NOT UNDER
   NWS QUALITY CONTROL.

LAZ040-048-061>063-065-066-069-200100-
SOUTHEAST LOUISIANA

CITY           SKY/WX    TMP DP  RH WIND       PRES   REMARKS
N.O. AUDUBON     N/A     81  69  66 MISG        N/A
6HR MIN TEMP:  80; 6HR MAX TEMP:  88;

N.O. INTL ARPT PTCLDY    82  67  60 E13       29.93R
6HR MIN TEMP:  82; 6HR MAX TEMP:  89;

N.O. LAKEFRONT CLEAR     81  69  67 E13       29.94R
6HR MIN TEMP:  81; 6HR MAX TEMP:  87; 6HR PCP: TRACE;

N.O. DOWNTOWN* FAIR      82  64  54 E3        29.94R
6HR MIN TEMP:  81; 6HR MAX TEMP:  88;

SLIDELL        PTCLDY    80  71  74 E5        29.94R
6HR MIN TEMP:  80; 6HR MAX TEMP:  88;

BATON ROUGE    MOCLDY    77  72  84 E5        29.94R
6HR MIN TEMP:  77; 6HR MAX TEMP:  88; 6HR PCP:  0.09;

BOOTHVILLE     CLOUDY    81  70  69 E13       29.93R
6HR MIN TEMP:  74; 6HR MAX TEMP:  82; 6HR PCP:  0.01;

BELLE CHASSE   MOCLDY    81  69  67 E6        29.93R
6HR MIN TEMP:  79; 6HR MAX TEMP:  87; 6HR PCP:  0.01;

BOGALUSA*        N/A     81  69  67 CALM      29.96R
6HR MIN TEMP:  81; 6HR MAX TEMP:  89;

GALLIANO*      NOT AVBL
NEW ROADS*     FAIR      82  71  69 E5        29.93R
6HR MIN TEMP:  82; 6HR MAX TEMP:  88;

GONZALES*      FAIR      81  75  82 E5        29.93R
6HR MIN TEMP:  81; 6HR MAX TEMP:  87;

HAMMOND*       NOT AVBL
HOUMA*         PTCLDY    79  61  53 E7        29.93R
PORT FOURCHON* CLOUDY    81  70  69 E15G24    29.94S

$$

LAZ041-044-053-054-200100-
SOUTHWEST LOUISIANA

CITY           SKY/WX    TMP DP  RH WIND       PRES   REMARKS
LAKE CHARLES   PTCLDY    83  73  72 E3        29.90S
6HR MIN TEMP:  82; 6HR MAX TEMP:  87;

LAFAYETTE      CLEAR     82  70  66 VRB3      29.92R
6HR MIN TEMP:  82; 6HR MAX TEMP:  88;

PATTERSON      CLEAR     79  72  78 E8        29.95S
6HR MIN TEMP:  79; 6HR MAX TEMP:  90;

SALT POINT       N/A     82  72  71 E5        29.92R
6HR MIN TEMP:  82; 6HR MAX TEMP:  90; 6HR PCP:  0.01;

NEW IBERIA     CLEAR     84  70  62 E8        29.92R
6HR MIN TEMP:  84; 6HR MAX TEMP:  89;

CHENAULT AIRPK PTCLDY    82  72  69 E3        29.91R

$$

LAZ027-028-200100-
CENTRAL LOUISIANA

CITY           SKY/WX    TMP DP  RH WIND       PRES   REMARKS
FORT POLK      CLEAR     82  69  64 E5        29.92R
6HR MIN TEMP:  82; 6HR MAX TEMP:  88; 6HR PCP: TRACE;

ALEXANDRIA INT CLEAR     83  69  62 E5        29.91R
6HR MIN TEMP:  83; 6HR MAX TEMP:  89;

ALEXANDRIA     CLEAR     81  73  76 CALM      29.93R
6HR MIN TEMP:  81; 6HR MAX TEMP:  91;


$$

LAZ001-002-200100-
NORTHWEST LOUISIANA

CITY           SKY/WX    TMP DP  RH WIND       PRES   REMARKS
SHREVEPORT     PTCLDY    85  67  54 SE6       29.92R
6HR MIN TEMP:  84; 6HR MAX TEMP:  91;

BARKSDALE AFB  CLEAR     83  68  58 E6        29.93R
6HR MIN TEMP:  83; 6HR MAX TEMP:  91;

DTN SHREVEPORT CLEAR     83  68  60 E6        29.92R
6HR MIN TEMP:  83; 6HR MAX TEMP:  89;


$$

LAZ014-016-200100-
NORTHEAST LOUISIANA

CITY           SKY/WX    TMP DP  RH WIND       PRES   REMARKS
MONROE         CLEAR     81  72  74 NE3       29.94S
6HR MIN TEMP:  81; 6HR MAX TEMP:  90;

TALLULAH       CLEAR     82  68  62 NE5       29.94R
6HR MIN TEMP:  82; 6HR MAX TEMP:  90;


$$




USA.gov is the U.S. government's official web portal to all federal, state and local government web resources and services.